Weather History for K3LF - November, 2011

Change the Weather History Date:

Thursday, November 17, 2011

  Actual Average (KSPI) Record (KSPI)
Temperature  
Mean Temperature 37 °F 42 °F  
Max Temperature 45 °F 52 °F 75 °F (1958)
Min Temperature 29 °F 33 °F 4 °F (1959)
Degree Days  
Heating Degree Days 28 22  
Month to date heating degree days 319  
Since 1 July heating degree days 729  
Cooling Degree Days 0 0  
Month to date cooling degree days 0  
Year to date cooling degree days 1121  
Moisture  
Dew Point 19 °F    
Average Humidity 51    
Maximum Humidity 71    
Minimum Humidity 26    
Precipitation  
Precipitation 0.00 in 0.11 in 1.61 in (2003)
Month to date precipitation 1.79  
Year to date precipitation 33.49  
Snow  
Snow 0.00 in 0.10 in 7.70 in (1926)
Month to date snowfall 0.2  
Since 1 July snowfall 0.2  
Since 1 September snowfall 0.2  
Snow Depth -    
Sea Level Pressure  
Sea Level Pressure 30.29 in    
Wind  
Wind Speed 8 mph (West)    
Max Wind Speed 15 mph    
Max Gust Speed 22 mph    
Visibility 10 miles    
Events      
T = Trace of Precipitation, MM = Missing Value Source: NWS Daily Summary

Daily Weather History Graph

Daily Weather History Graph

Search for Another Location

Airport or City:

Trip Planner

Search our weather history database for the weather conditions in past years. The results will help you decide how hot, cold, wet, or windy it might be!

Date:

Astronomy

Nov. 17, 2011 Rise Set
Actual Time 6:43 AM CST 4:42 PM CST
Civil Twilight 6:15 AM CST 5:11 PM CST
Nautical Twilight 5:42 AM CST 5:44 PM CST
Astronomical Twilight 5:10 AM CST 6:15 PM CST
Moon 11:02 PM CST (11/17) 11:53 AM CST (11/17)
Length of Visible Light 10h 56m
Length of Day
9h 59m
Waning Gibbous, 59% of the Moon is Illuminated
Nov 17
Waning Gibbous
Nov 18
Last Quarter
Nov 25
New
Dec 2
First Quarter
Dec 10
Full

Hourly Weather History & Observations

Time (CST) Temp. Windchill Dew Point Humidity Pressure Visibility Wind Dir Wind Speed Gust Speed Precip Events Conditions
12:15 AM 34.7 °F 30.6 °F 21.0 °F 57% 30.24 in 10.0 mi West 4.6 mph - N/A   Mostly Cloudy
12:35 AM 34.0 °F 28.8 °F 22.1 °F 62% 30.24 in 10.0 mi West 5.8 mph - N/A   Mostly Cloudy
12:55 AM 33.1 °F 27.7 °F 23.9 °F 69% 30.24 in 10.0 mi West 5.8 mph - N/A   Mostly Cloudy
1:15 AM 33.3 °F 27.1 °F 23.9 °F 69% 30.24 in 10.0 mi West 6.9 mph - N/A   Scattered Clouds
1:35 AM 33.3 °F 28.9 °F 23.4 °F 67% 30.25 in 10.0 mi West 4.6 mph - N/A   Scattered Clouds
1:55 AM 33.3 °F 27.9 °F 23.7 °F 68% 30.25 in 10.0 mi West 5.8 mph - N/A   Scattered Clouds
2:15 AM 33.3 °F 27.9 °F 23.2 °F 67% 30.25 in 10.0 mi WSW 5.8 mph - N/A   Scattered Clouds
2:35 AM 32.9 °F 27.5 °F 23.7 °F 69% 30.25 in 10.0 mi West 5.8 mph - N/A   Clear
2:55 AM 33.8 °F 27.7 °F 22.1 °F 62% 30.25 in 10.0 mi West 6.9 mph - N/A   Clear
3:15 AM 32.9 °F 26.7 °F 21.9 °F 64% 30.25 in 10.0 mi West 6.9 mph - N/A   Clear
3:35 AM 32.2 °F 25.8 °F 22.1 °F 66% 30.25 in 10.0 mi West 6.9 mph - N/A   Clear
4:15 AM 33.1 °F 25.5 °F 20.8 °F 61% 30.27 in 10.0 mi WNW 9.2 mph - N/A   Clear
4:35 AM 32.4 °F 25.3 °F 21.2 °F 63% 30.28 in 10.0 mi WNW 8.1 mph - N/A   Clear
4:55 AM 32.5 °F 25.5 °F 19.9 °F 60% 30.28 in 10.0 mi WNW 8.1 mph - N/A   Clear
5:15 AM 32.0 °F 24.8 °F 19.9 °F 61% 30.28 in 10.0 mi WNW 8.1 mph - N/A   Scattered Clouds
5:35 AM 31.8 °F 25.4 °F 20.1 °F 62% 30.28 in 10.0 mi WNW 6.9 mph - N/A   Clear
6:15 AM 30.2 °F 24.3 °F 20.3 °F 67% 30.29 in 10.0 mi West 5.8 mph - N/A   Clear
6:35 AM 29.7 °F 24.7 °F 21.0 °F 70% 30.30 in 10.0 mi West 4.6 mph - N/A   Clear
6:55 AM 29.3 °F 23.2 °F 21.0 °F 71% 30.31 in 10.0 mi West 5.8 mph - N/A   Clear
7:15 AM 30.7 °F 24.9 °F 21.0 °F 67% 30.31 in 10.0 mi West 5.8 mph - N/A   Clear
7:35 AM 31.8 °F 24.6 °F 20.8 °F 64% 30.32 in 10.0 mi West 8.1 mph - N/A   Clear
7:55 AM 32.0 °F 24.2 °F 20.8 °F 63% 30.33 in 10.0 mi West 9.2 mph - N/A   Clear
8:15 AM 32.9 °F 25.3 °F 21.4 °F 63% 30.34 in 10.0 mi West 9.2 mph - N/A   Clear
8:35 AM 34.2 °F 26.2 °F 20.7 °F 58% 30.34 in 10.0 mi West 10.4 mph - N/A   Clear
8:55 AM 35.6 °F 28.6 °F 19.4 °F 52% 30.33 in 10.0 mi WNW 9.2 mph - N/A   Clear
9:15 AM 36.9 °F 30.1 °F 18.0 °F 46% 30.33 in 10.0 mi WNW 9.2 mph - N/A   Clear
9:35 AM 38.7 °F 31.8 °F 17.8 °F 43% 30.33 in 10.0 mi West 10.4 mph - N/A   Clear
9:55 AM 39.4 °F 33.2 °F 17.2 °F 41% 30.33 in 10.0 mi West 9.2 mph - N/A   Clear
10:15 AM 40.5 °F 33.6 °F 16.0 °F 37% 30.34 in 10.0 mi WNW 11.5 mph - N/A   Clear
10:35 AM 41.0 °F 34.7 °F 15.1 °F 35% 30.34 in 10.0 mi West 10.4 mph 16.1 mph N/A   Clear
10:55 AM 41.9 °F 34.6 °F 15.3 °F 34% 30.34 in 10.0 mi West 13.8 mph - N/A   Clear
11:15 AM 43.0 °F 36.4 °F 16.3 °F 34% 30.33 in 10.0 mi WNW 12.7 mph 18.4 mph N/A   Clear
11:35 AM 43.3 °F 36.1 °F 16.9 °F 35% 30.33 in 10.0 mi West 15.0 mph 21.9 mph N/A   Clear
11:55 AM 43.5 °F 36.7 °F 15.6 °F 33% 30.32 in 10.0 mi West 13.8 mph 19.6 mph N/A   Clear
12:15 PM 44.1 °F 37.4 °F 14.5 °F 30% 30.31 in 10.0 mi WNW 13.8 mph 20.7 mph N/A   Clear
12:35 PM 45.3 °F 39.3 °F 15.8 °F 31% 30.31 in 10.0 mi WNW 12.7 mph 19.6 mph N/A   Clear
12:55 PM 45.3 °F 38.7 °F 15.1 °F 30% 30.31 in 10.0 mi WNW 15.0 mph 18.4 mph N/A   Clear
1:15 PM 45.1 °F 39.9 °F 13.6 °F 28% 30.31 in 10.0 mi WNW 10.4 mph 18.4 mph N/A   Clear
1:35 PM 45.3 °F 39.3 °F 13.3 °F 27% 30.30 in 10.0 mi West 12.7 mph 20.7 mph N/A   Clear
2:15 PM 45.5 °F 40.3 °F 12.6 °F 26% 30.29 in 10.0 mi West 10.4 mph 19.6 mph N/A   Clear
2:35 PM 45.5 °F 39.9 °F 12.7 °F 27% 30.29 in 10.0 mi West 11.5 mph 17.3 mph N/A   Clear
2:55 PM 45.7 °F 40.6 °F 13.5 °F 27% 30.29 in 10.0 mi SW 10.4 mph - N/A   Clear
3:15 PM 45.1 °F 40.3 °F 12.7 °F 27% 30.29 in 10.0 mi WSW 9.2 mph - N/A   Clear
3:35 PM 44.8 °F 40.4 °F 13.5 °F 28% 30.29 in 10.0 mi WSW 8.1 mph - N/A   Clear
3:55 PM 44.2 °F 39.2 °F 14.4 °F 30% 30.29 in 10.0 mi West 9.2 mph - N/A   Clear
4:15 PM 43.2 °F 38.4 °F 14.4 °F 31% 30.28 in 10.0 mi WSW 8.1 mph - N/A   Clear
4:35 PM 41.0 °F 37.1 °F 16.0 °F 36% 30.28 in 10.0 mi SW 5.8 mph - N/A   Clear
4:55 PM 36.7 °F 32.0 °F 17.8 °F 46% 30.28 in 10.0 mi South 5.8 mph - N/A   Clear
5:15 PM 34.9 °F 29.9 °F 19.0 °F 52% 30.29 in 10.0 mi South 5.8 mph - N/A   Clear
5:35 PM 33.3 °F 27.9 °F 19.2 °F 56% 30.29 in 10.0 mi South 5.8 mph - N/A   Clear
5:55 PM 33.4 °F 27.3 °F 18.7 °F 55% 30.28 in 10.0 mi South 6.9 mph - N/A   Clear
6:15 PM 32.0 °F 25.6 °F 19.9 °F 61% 30.29 in 10.0 mi South 6.9 mph - N/A   Clear
6:35 PM 32.7 °F 26.4 °F 18.9 °F 57% 30.29 in 10.0 mi South 6.9 mph - N/A   Clear
6:55 PM 31.6 °F 24.4 °F 19.2 °F 60% 30.29 in 10.0 mi SSE 8.1 mph - N/A   Clear
7:35 PM 32.4 °F 25.3 °F 18.5 °F 57% 30.29 in 10.0 mi South 8.1 mph - N/A   Clear
7:55 PM 32.4 °F 24.6 °F 19.2 °F 58% 30.29 in 10.0 mi South 9.2 mph - N/A   Clear
8:15 PM 32.9 °F 25.9 °F 18.5 °F 55% 30.28 in 10.0 mi South 8.1 mph - N/A   Clear
8:35 PM 32.9 °F 25.9 °F 19.2 °F 57% 30.28 in 10.0 mi South 8.1 mph - N/A   Clear
8:55 PM 32.5 °F 25.5 °F 18.9 °F 57% 30.28 in 10.0 mi South 8.1 mph - N/A   Clear
9:35 PM 32.0 °F 24.2 °F 19.0 °F 59% 30.28 in 10.0 mi South 9.2 mph - N/A   Clear
9:55 PM 31.6 °F 24.4 °F 18.3 °F 58% 30.28 in 10.0 mi South 8.1 mph - N/A   Clear
10:35 PM 31.1 °F 23.1 °F 18.9 °F 61% 30.26 in 10.0 mi South 9.2 mph - N/A   Clear
10:55 PM 31.3 °F 23.3 °F 18.7 °F 60% 30.26 in 10.0 mi South 9.2 mph - N/A   Clear
11:15 PM 31.1 °F 23.7 °F 19.2 °F 61% 30.26 in 10.0 mi South 8.1 mph - N/A   Clear
11:35 PM 31.6 °F 23.7 °F 19.0 °F 60% 30.25 in 10.0 mi South 9.2 mph - N/A   Clear
11:55 PM 31.1 °F 22.4 °F 19.4 °F 62% 30.25 in 10.0 mi South 10.4 mph - N/A   Clear